Dewpoint
-12 -7 -5 -4 -3 -2 -2 -3 -4 -4 -4 -5 -4 -4 -4 -3 -9 -7 -0 2 2 2 3 3 3 3 2 3 4 5 4 4 4 5 5 5 2 2 2 5 5 5 7 6 4 6 6 1 2 5 3 2 2 3
-10 -5 -9 -4 -3 -2 -2 -3 -3 -4 -3 -4 -4 -4 -4 -3 -5 -8 -0 1 2 2 4 4 4 3 4 4 4 4 4 4 4 5 5 5 5 2 3 4 2 5 3 6 5 4 2 2 2 2 2 2 2 2
-13 -11 -17 -4 -3 -2 -2 -2 -3 -3 -3 -4 -3 -4 -3 -3 -3 -5 -3 1 2 3 4 3 4 3 4 3 3 4 4 4 4 4 5 5 5 4 5 3 3 2 2 4 5 3 2 1 2 1 1 0 1 2
-14 -19 -12 -6 -3 -2 -2 -2 -2 -4 -3 -4 -4 -2 -3 -3 -3 -6 -2 -0 1 2 3 4 3 3 3 4 4 4 3 4 4 4 4 5 5 4 4 4 4 3 3 3 3 2 2 2 1 1 0 -1 -1 0
-16 -20 -11 -5 -3 -2 -3 -2 -2 -3 -4 -4 -4 -4 -4 -3 -2 -4 -9 -3 -1 1 3 4 4 3 4 4 4 4 4 5 4 5 5 4 4 4 3 4 4 2 3 3 3 2 2 2 1 1 -0 -1 -1 -1
-18 -16 -8 -10 -3 -2 -5 -4 -3 -4 -4 -4 -3 -3 -3 -3 -3 -1 1 2 2 3 3 5 4 4 4 4 4 4 5 4 4 4 4 3 3 4 5 5 1 0 1 1 1 1 2 1 1 0 -0 -1 -1 -1
-16 -13 -12 -13 -3 -3 -13 -6 -13 -5 -5 -3 -3 -3 -3 -3 -3 -1 1 1 3 3 3 4 5 4 4 4 4 4 5 4 4 3 4 4 4 4 5 5 1 1 2 2 2 2 2 2 1 0 -1 -1 -2 -2
-16 -13 -16 -17 -3 -7 -11 -15 -16 -15 -15 -4 -2 -2 -2 -2 -2 0 1 2 3 3 3 4 4 4 4 5 4 4 4 4 3 4 4 5 5 5 6 4 3 3 3 2 2 2 2 2 1 -0 -1 -1 -1 -2
-15 -15 -17 -18 -2 -14 -13 -17 -19 -18 -13 -3 -1 -1 -1 -1 0 1 2 2 3 3 4 4 4 5 4 4 5 4 5 5 3 4 5 4 5 6 4 3 4 3 3 3 2 1 1 1 0 -1 -1 -1 -1 -3
-16 -15 -17 -15 -3 -13 -15 -16 -19 -20 -7 -3 -1 0 0 1 2 2 2 3 3 3 4 4 3 4 3 3 4 4 4 4 4 4 3 4 5 3 3 3 3 3 3 2 2 2 1 1 -0 -1 -1 -1 -2 -2
-15 -16 -17 -9 -9 -14 -16 -16 -19 -20 -5 -3 -1 0 1 1 2 3 3 4 3 3 4 3 2 4 3 4 4 3 4 3 4 3 4 5 5 3 0 -1 -1 0 2 3 3 2 1 1 0 -0 -1 -2 -2 -3
-14 -17 -17 -8 -11 -15 -16 -16 -19 -17 -5 -4 -0 2 2 2 2 2 3 3 3 4 3 3 3 3 3 3 3 3 4 3 5 1 3 4 3 -2 -4 -1 1 2 2 2 2 2 1 1 1 0 -1 -1 -2 -1
-9 -15 -16 -4 -8 -14 -15 -16 -19 -15 -3 -2 -0 1 1 1 3 3 4 3 3 2 1 2 3 3 3 3 3 2 4 4 1 3 3 3 -1 -3 -3 -0 1 1 1 2 2 1 1 2 1 0 -1 -2 -2 -2
-4 -3 -10 -9 -10 -14 -15 -16 -18 -13 -3 -1 -1 -1 0 2 2 2 2 2 1 1 1 1 2 3 3 3 3 3 3 1 3 3 3 1 -2 -3 -1 -0 0 1 1 1 1 1 1 1 0 -0 -1 -1 -2 -4
-3 -3 -3 -13 -11 -12 -13 -16 -17 -9 -3 -2 -2 -0 -0 -0 -0 -1 -1 -0 -0 0 1 2 2 1 2 2 2 2 3 2 2 2 2 -1 -3 -3 -2 -1 -0 0 0 0 0 0 0 0 0 -1 -1 -2 -4 -5
-4 -3 -3 -12 -12 -12 -13 -15 -16 -6 -4 -3 -3 -2 -1 -0 -0 -1 -1 -0 -0 -0 1 1 2 2 1 2 2 2 2 2 2 -1 -2 -3 -4 -4 -3 -2 -1 -0 0 -0 -0 -0 -0 -1 -1 -1 -2 -3 -4 -6
-4 -3 -3 -9 -11 -11 -12 -14 -10 -4 -4 -4 -4 -3 -2 -2 -1 -2 -2 -2 -1 -1 1 1 2 3 1 2 2 1 1 0 -3 -3 -3 -4 -4 -4 -3 -2 -1 -0 -0 -0 -1 -1 -1 -2 -2 -2 -3 -5 -6 -7
-3 -3 -4 -7 -8 -11 -13 -11 -6 -4 -5 -4 -4 -4 -4 -3 -3 -3 -3 -3 -2 -1 -1 0 -1 1 2 3 2 -1 -3 -4 -3 -3 -3 -3 -4 -4 -4 -3 -2 -1 -0 -0 -0 -1 -2 -2 -3 -3 -4 -5 -7 -7
-3 -3 -4 -7 -9 -12 -15 -10 -7 -5 -5 -5 -5 -5 -4 -4 -4 -4 -4 -4 -4 -3 -2 -2 -1 1 0 -2 -2 -3 -4 -4 -5 -4 -4 -4 -3 -3 -3 -4 -3 -2 -1 -1 -1 -1 -2 -3 -3 -4 -5 -6 -7 -7
-3 -3 -4 -5 -8 -13 -15 -11 -10 -5 -5 -5 -5 -5 -5 -5 -5 -5 -5 -4 -5 -4 -3 -2 -2 -3 -3 -4 -4 -5 -6 -6 -6 -6 -5 -5 -5 -4 -4 -2 -3 -3 -2 -1 -1 -1 -2 -2 -4 -4 -5 -6 -7 -7
-4 -3 -3 -6 -9 -12 -14 -10 -8 -6 -6 -6 -6 -6 -6 -7 -7 -6 -5 -4 -4 -3 -6 -4 -3 -3 -4 -5 -6 -7 -8 -9 -9 -8 -8 -7 -6 -5 -4 -3 -3 -3 -3 -2 -1 -2 -2 -2 -3 -4 -5 -6 -7 -7
-3 -3 -5 -8 -11 -13 -13 -10 -7 -7 -7 -6 -7 -8 -7 -7 -7 -6 -6 -6 -5 -5 -5 -5 -5 -5 -6 -9 -12 -13 -13 -13 -12 -11 -8 -7 -7 -6 -6 -5 -4 -3 -3 -3 -2 -1 -2 -3 -3 -4 -5 -6 -6 -7
-4 -4 -7 -11 -12 -13 -10 -10 -7 -7 -6 -7 -8 -8 -8 -7 -7 -7 -7 -7 -6 -5 -5 -6 -7 -10 -13 -17 -17 -16 -15 -14 -13 -12 -11 -10 -9 -8 -7 -6 -5 -4 -3 -3 -3 -3 -2 -3 -4 -5 -5 -6 -7 -7
-4 -5 -5 -6 -6 -8 -13 -9 -9 -8 -8 -8 -7 -8 -9 -7 -8 -7 -7 -6 -6 -7 -7 -8 -13 -19 -20 -20 -19 -17 -14 -13 -13 -13 -12 -11 -11 -10 -9 -8 -7 -6 -5 -4 -4 -4 -3 -3 -5 -6 -6 -6 -7 -3
-5 -6 -6 -8 -10 -12 -9 -9 -9 -8 -8 -8 -8 -9 -11 -9 -10 -10 -10 -7 -7 -8 -8 -12 -15 -19 -19 -19 -18 -15 -13 -13 -13 -13 -13 -12 -12 -11 -11 -9 -8 -7 -6 -5 -5 -5 -5 -4 -4 -5 -6 -5 -5 -3
-5 -7 -8 -9 -12 -11 -10 -8 -9 -9 -9 -10 -10 -10 -10 -10 -10 -11 -11 -9 -9 -9 -10 -15 -18 -18 -18 -18 -17 -14 -13 -12 -12 -12 -12 -12 -12 -11 -10 -10 -10 -8 -7 -6 -6 -6 -6 -5 -4 -5 -6 -7 -5 -3
-5 -7 -9 -12 -13 -14 -12 -12 -12 -10 -10 -11 -11 -11 -11 -11 -12 -12 -12 -11 -11 -13 -17 -19 -19 -19 -18 -17 -16 -14 -12 -12 -12 -12 -12 -12 -11 -11 -11 -11 -10 -10 -9 -8 -7 -7 -7 -6 -5 -6 -6 -6 -5 -4
-7 -9 -12 -13 -13 -13 -10 -11 -11 -10 -11 -13 -10 -11 -11 -12 -13 -15 -13 -12 -12 -16 -19 -19 -18 -17 -16 -15 -14 -13 -12 -12 -12 -12 -12 -12 -11 -11 -11 -10 -10 -9 -8 -7 -8 -8 -8 -7 -7 -6 -7 -6 -5 -4
-9 -11 -12 -10 -11 -12 -12 -12 -12 -14 -15 -13 -11 -11 -12 -14 -16 -15 -14 -15 -16 -17 -18 -17 -16 -15 -15 -14 -12 -12 -12 -11 -11 -11 -11 -11 -11 -11 -11 -10 -9 -9 -8 -8 -8 -8 -7 -7 -7 -7 -7 -6 -5 -4
-8 -11 -10 -11 -10 -10 -13 -14 -13 -15 -15 -13 -12 -13 -14 -17 -18 -18 -18 -18 -18 -18 -17 -17 -16 -15 -14 -12 -12 -11 -11 -11 -12 -12 -12 -11 -11 -11 -11 -11 -10 -9 -9 -9 -8 -8 -8 -8 -9 -9 -8 -7 -6 -5
-9 -10 -10 -10 -10 -12 -13 -14 -15 -14 -14 -14 -14 -14 -14 -15 -17 -18 -18 -19 -18 -17 -17 -16 -15 -12 -12 -11 -11 -12 -12 -12 -12 -12 -12 -12 -12 -11 -11 -11 -10 -10 -9 -9 -9 -9 -9 -9 -10 -9 -8 -7 -6 -7
-10 -10 -11 -11 -12 -14 -14 -14 -14 -14 -13 -14 -14 -14 -14 -14 -14 -16 -17 -17 -17 -16 -15 -14 -12 -11 -11 -12 -12 -12 -12 -12 -12 -12 -12 -12 -11 -11 -10 -10 -10 -9 -10 -10 -9 -9 -10 -10 -10 -9 -8 -8 -7 -8
-12 -11 -12 -13 -14 -15 -14 -14 -14 -14 -14 -14 -14 -14 -14 -14 -13 -15 -15 -15 -15 -15 -13 -11 -11 -11 -12 -12 -12 -12 -12 -12 -12 -12 -11 -11 -12 -11 -10 -10 -10 -10 -10 -10 -10 -10 -10 -10 -9 -9 -8 -7 -7 -8
Wind_Speed
17 16 16 16 13 14 17 18 18 19 19 17 18 16 14 16 14 9 3 2 4 3 3 2 1 1 4 4 3 5 3 1 2 2 2 3 2 3 3 8 6 6 6 3 4 4 6 3 8 1 3 7 9 2
18 17 18 16 12 15 17 17 17 18 18 19 18 18 15 15 13 10 5 4 6 4 3 2 3 2 5 2 6 10 1 3 4 1 2 3 3 2 4 1 2 4 5 5 7 5 8 18 4 4 7 7 4 2
18 18 18 16 12 16 17 17 18 19 19 18 17 18 16 14 11 9 7 4 2 3 5 2 4 5 5 6 6 4 3 5 4 4 0 3 4 2 2 4 5 4 4 2 4 6 4 6 7 8 6 5 2 5
18 17 17 17 12 17 16 18 18 19 19 19 18 18 16 12 10 8 6 3 2 2 2 1 3 4 4 7 8 10 9 7 6 7 5 2 3 7 2 3 2 1 3 5 5 8 1 6 7 5 5 5 4 6
18 17 18 16 12 17 17 17 19 20 20 20 21 18 15 13 11 9 7 6 6 2 2 4 4 5 5 5 6 9 10 8 7 4 2 3 4 3 4 1 3 5 5 3 3 3 1 2 4 3 2 5 6 8
18 17 16 16 13 16 17 17 20 21 21 22 21 17 14 10 7 2 3 3 7 7 2 2 2 2 2 3 4 5 7 7 5 4 3 5 8 3 3 3 4 9 13 15 2 3 2 1 2 1 3 5 7 10
17 16 16 16 13 16 16 17 19 21 23 20 16 12 8 8 10 6 1 8 10 5 1 3 1 1 2 2 2 4 9 6 6 4 5 4 3 4 3 4 6 6 12 7 5 6 2 4 4 4 5 10 12 13
16 15 14 15 13 15 15 17 19 22 20 10 10 5 2 7 10 5 4 14 9 3 1 1 2 1 0 1 2 4 4 7 5 3 3 3 4 4 4 7 17 21 14 7 7 7 7 7 8 9 10 12 15 15
15 14 13 16 14 13 14 17 18 21 13 4 7 10 7 4 4 5 9 6 10 2 2 1 1 1 2 3 2 2 4 2 3 3 2 1 2 4 5 6 8 10 2 2 4 8 7 8 10 12 13 14 14 18
14 11 13 14 13 12 14 17 18 20 5 0 1 2 1 3 5 4 5 4 5 3 3 2 3 1 1 1 2 0 2 1 1 1 4 2 3 16 24 24 21 13 9 8 4 5 10 12 13 16 15 14 15 19
11 11 12 13 13 11 13 15 19 19 3 3 2 1 2 7 2 1 2 2 4 1 3 2 2 2 3 1 2 1 0 0 2 1 1 2 2 2 9 13 13 11 14 16 10 9 9 13 17 18 18 17 19 21
12 12 12 12 12 12 12 14 18 16 1 2 5 7 5 2 1 2 0 0 1 2 1 1 1 2 2 1 1 1 1 1 2 2 1 2 1 15 19 16 15 11 5 8 11 8 6 9 16 19 20 21 22 22
10 12 12 11 12 12 11 13 15 10 4 4 2 4 1 0 2 3 5 2 2 1 2 3 0 1 1 1 1 1 0 2 0 1 2 2 12 24 20 17 15 9 1 4 6 6 7 11 16 20 22 23 23 24
10 12 13 12 13 12 9 13 13 5 3 2 1 2 3 3 3 1 2 2 3 2 0 1 2 1 1 1 1 0 1 1 2 2 3 2 19 24 21 18 15 12 7 2 2 5 9 14 17 18 22 23 25 27
12 15 15 12 13 12 10 11 11 2 2 2 2 4 4 1 3 4 1 1 2 0 3 1 3 1 1 1 1 1 1 3 3 2 2 15 22 22 21 21 18 12 8 6 3 4 8 12 16 20 22 24 26 29
14 14 12 10 7 8 12 10 7 2 1 2 2 2 2 2 3 4 1 2 1 0 1 1 1 0 3 2 2 5 2 4 1 2 14 20 22 23 22 19 16 13 9 6 5 4 7 11 16 19 22 24 27 27
11 11 9 8 8 11 12 7 2 2 3 3 2 5 2 1 3 6 5 3 1 1 1 1 3 2 1 2 3 3 3 2 7 14 15 19 21 23 22 19 16 14 10 7 6 5 7 11 15 21 24 25 27 28
13 11 7 8 10 10 8 3 2 2 4 4 2 4 6 3 4 4 4 4 4 2 1 0 1 3 3 3 2 2 3 7 9 11 18 19 17 18 21 20 18 15 11 9 7 6 9 13 17 21 24 27 28 28
12 10 7 8 7 5 2 1 2 2 4 2 3 3 4 3 5 3 3 3 4 4 1 1 3 3 2 2 2 1 6 9 13 20 21 16 12 20 22 20 17 15 13 10 8 7 9 12 18 21 25 27 29 30
12 9 8 7 5 3 2 1 2 2 2 2 4 4 3 3 3 3 6 7 6 4 3 3 4 2 2 2 4 9 12 14 17 21 22 13 21 22 23 21 17 14 13 12 9 10 11 15 18 19 23 27 30 32
13 14 9 7 4 6 3 2 1 3 2 1 3 3 2 2 3 3 3 7 7 5 3 9 6 9 7 8 11 12 14 17 18 18 24 28 26 24 23 20 18 16 13 13 12 12 13 14 16 19 24 29 30 31
13 12 5 6 5 3 3 4 2 2 2 2 3 3 3 3 4 5 6 7 5 7 7 7 10 7 8 9 11 13 15 16 18 20 19 18 21 22 24 21 21 20 16 15 15 16 15 16 17 21 26 29 30 30
15 13 6 4 2 3 2 4 3 3 2 3 1 2 3 3 4 5 4 6 7 10 14 12 8 5 6 8 11 13 14 15 17 18 20 22 23 23 22 22 20 20 20 18 16 18 18 15 18 23 27 30 32 31
17 10 7 7 9 2 3 3 3 3 2 2 2 2 2 4 4 4 4 5 9 8 13 12 7 5 8 10 13 16 17 17 19 21 21 20 22 24 23 23 24 21 20 20 19 18 18 17 21 25 29 32 34 33
6 6 5 4 6 3 3 3 3 3 2 3 2 2 2 3 1 3 3 4 10 14 14 11 9 9 11 13 15 16 17 19 21 25 24 23 22 25 26 24 22 20 17 20 20 20 21 20 23 27 31 36 38 35
5 10 9 9 4 5 5 5 5 5 3 3 4 2 2 2 0 6 3 5 11 14 15 11 10 12 14 14 19 20 21 20 22 26 28 24 21 21 24 27 28 24 17 17 19 21 24 25 25 28 32 37 35 34
6 5 6 7 5 4 2 2 3 2 4 5 3 4 2 2 6 4 6 8 12 12 9 10 12 15 17 19 20 20 22 23 23 25 26 26 25 24 25 27 30 27 21 20 18 21 24 26 27 28 32 36 35 34
4 10 6 10 6 5 3 3 5 6 4 6 9 4 6 8 5 3 7 12 15 12 11 14 16 18 21 22 21 21 23 22 23 24 25 26 23 20 19 20 20 20 19 22 22 20 22 24 26 27 32 36 38 36
6 10 12 4 3 5 8 7 4 7 7 12 5 4 4 6 5 6 7 9 12 16 18 19 20 23 22 20 20 20 20 21 23 25 26 29 28 21 15 15 15 16 16 18 18 19 19 21 24 24 29 37 37 35
8 18 6 7 5 6 6 9 5 6 10 11 6 5 6 11 12 13 15 19 21 22 23 24 22 19 18 21 23 22 20 20 20 21 24 28 27 22 19 16 16 15 14 14 15 17 15 18 24 29 33 38 39 40
15 13 5 6 4 4 7 9 8 6 6 8 13 13 14 12 23 24 21 19 19 20 18 15 13 14 17 19 21 25 27 21 19 19 20 23 26 25 21 18 15 15 13 12 16 18 23 29 32 31 35 39 40 38
9 10 7 4 3 3 5 7 5 4 4 4 4 7 5 5 6 8 12 10 8 9 9 10 11 12 15 16 17 17 19 21 21 21 21 20 19 18 17 15 12 13 11 12 16 23 31 30 30 33 36 38 39 39
5 5 4 4 3 3 5 5 3 2 3 2 3 4 5 4 7 6 8 9 9 8 7 8 10 11 13 14 15 16 18 19 17 16 16 16 16 14 11 9 9 10 11 14 19 24 28 29 31 32 37 40 42 39
Wind_Direction
292 301 306 309 306 318 317 319 329 331 334 340 334 337 332 328 334 342 277 332 1 280 265 231 186 75 152 192 172 141 125 156 175 152 202 258 275 220 300 149 167 172 174 192 187 209 265 210 342 358 300 351 348 316
289 297 303 303 303 313 310 315 322 325 329 332 334 333 327 320 325 336 294 327 325 235 255 207 212 208 205 184 139 164 6 143 155 162 208 304 279 269 259 246 134 200 199 165 198 215 267 323 319 42 343 339 335 293
286 294 305 302 301 306 307 313 319 321 323 325 325 319 315 306 310 319 302 332 343 331 300 231 203 220 225 217 198 150 200 183 176 197 100 267 266 315 252 245 215 236 165 200 177 236 245 37 41 15 13 24 340 183
286 294 302 300 300 310 311 313 315 318 320 321 317 311 307 310 299 290 276 237 291 331 300 158 227 249 242 232 229 233 238 210 213 225 224 250 281 3 303 290 319 109 97 210 251 275 188 80 17 2 27 51 77 140
285 291 301 300 302 307 311 314 312 316 317 315 309 304 297 295 295 285 245 218 209 185 321 294 295 265 251 246 238 236 244 242 202 189 219 228 218 259 243 277 244 198 197 189 239 153 89 92 359 354 46 83 107 130
281 289 297 299 302 309 312 314 314 318 319 316 313 304 291 278 268 152 186 194 173 190 320 294 306 268 240 228 217 228 210 225 207 201 217 232 250 251 274 243 240 242 236 243 250 158 104 219 305 271 133 131 132 135
279 290 299 300 304 308 312 319 325 324 326 324 319 308 275 232 196 197 212 173 164 161 298 302 278 279 263 251 240 225 209 201 225 217 226 269 275 223 255 242 313 257 331 283 240 240 206 234 240 200 160 141 137 133
279 290 300 298 308 312 318 326 332 334 338 347 352 7 159 154 175 220 148 162 171 181 278 298 278 256 192 275 233 204 202 201 218 258 238 241 186 215 258 247 263 269 281 232 219 231 248 208 198 174 165 155 145 139
279 290 297 294 309 317 324 328 337 339 342 345 26 61 88 148 173 153 151 160 181 196 299 200 266 306 185 243 234 229 221 206 212 222 221 307 191 227 244 293 345 3 0 300 208 203 223 206 185 173 164 157 151 146
276 294 300 296 309 317 325 330 339 341 322 334 93 40 211 184 145 127 140 142 169 204 244 253 266 269 223 266 223 268 179 330 258 232 309 219 262 266 282 295 294 295 290 278 236 208 199 200 192 176 176 171 167 156
291 305 300 301 309 319 326 332 340 345 189 185 158 183 108 152 142 94 110 171 157 237 219 221 263 319 344 314 344 33 292 244 287 0 278 278 271 38 337 323 311 294 257 251 265 274 280 239 196 182 178 179 171 165
301 311 300 303 311 321 329 333 342 343 264 162 132 128 150 213 132 67 119 291 195 208 56 330 168 252 298 291 287 309 223 48 259 323 300 264 306 2 350 342 334 325 288 231 234 247 242 211 198 191 186 177 176 174
285 302 295 305 310 319 329 330 343 343 136 123 158 149 163 11 173 209 183 193 182 133 358 357 294 254 288 272 258 34 223 230 170 221 241 237 6 352 352 351 355 358 358 201 220 209 197 189 192 195 185 184 180 173
266 291 302 307 308 315 321 327 337 328 200 201 178 159 198 176 244 184 21 58 125 132 27 283 265 237 271 22 300 313 254 17 261 242 236 35 345 349 358 358 1 0 360 349 227 204 197 196 194 193 195 191 183 175
262 287 294 304 301 303 315 329 329 286 202 216 198 218 196 126 95 113 148 100 62 94 12 323 290 226 295 53 185 337 286 260 243 245 20 341 341 351 352 356 359 359 355 339 303 223 203 199 196 191 193 190 186 181
252 284 297 301 293 305 319 327 322 233 213 224 216 254 167 180 141 143 142 110 35 311 277 214 283 71 273 181 179 212 219 231 184 345 330 340 342 348 350 354 354 351 345 329 303 259 220 206 199 192 187 189 187 185
248 273 292 296 296 312 317 317 242 210 207 217 205 234 230 26 101 142 158 168 242 337 282 299 218 203 11 206 223 214 228 47 336 335 334 343 344 347 347 349 349 349 340 326 301 261 223 208 200 194 188 185 186 186
244 275 272 294 303 314 307 239 188 204 227 208 191 191 206 202 180 178 165 155 161 169 325 3 317 225 223 214 204 87 23 317 335 321 338 349 352 353 354 349 345 340 335 321 303 269 234 219 208 200 195 190 187 184
244 247 251 280 292 302 274 250 223 244 229 175 187 183 194 206 206 210 215 213 170 192 274 237 249 228 221 94 102 200 305 321 316 325 331 348 327 332 341 345 342 335 327 317 299 262 237 226 220 210 201 194 190 185
236 232 242 268 270 258 250 269 236 203 230 163 188 199 206 203 194 216 206 198 190 187 199 216 225 174 131 228 303 313 317 321 320 318 317 318 308 320 325 330 334 326 316 307 288 264 244 226 224 220 210 203 196 188
211 216 230 251 250 233 269 230 241 202 233 186 172 202 214 217 228 203 194 190 205 221 242 231 215 233 242 279 299 306 311 311 305 297 300 305 314 317 317 320 326 320 310 295 281 267 256 243 233 219 210 205 199 195
191 197 217 211 216 227 252 223 194 217 160 131 172 210 217 202 197 198 191 203 237 237 220 215 228 246 281 295 307 310 309 303 302 301 301 301 302 306 308 307 306 307 300 290 276 274 266 255 232 220 211 204 200 195
172 175 172 192 203 253 245 203 187 204 193 166 166 234 234 208 192 200 235 229 244 233 231 232 232 248 291 308 311 313 312 312 309 305 303 302 300 299 300 301 301 300 296 288 279 264 262 258 234 220 211 205 197 193
185 168 185 198 196 220 189 195 200 179 166 193 191 251 229 180 185 199 247 233 234 227 209 202 213 267 302 318 325 324 322 316 310 305 306 304 304 303 301 294 292 290 287 287 278 263 253 245 229 220 212 202 196 199
157 193 192 184 190 158 204 173 188 194 229 167 185 254 236 175 171 230 227 240 222 215 197 202 239 278 298 311 316 316 317 315 311 306 304 307 307 301 298 295 290 288 286 277 268 257 244 235 228 221 213 206 202 197
202 198 185 190 187 183 192 166 193 192 161 178 221 173 170 139 169 243 234 224 222 197 197 229 261 279 292 303 306 310 313 313 307 301 305 305 300 296 294 294 294 286 289 285 270 258 247 235 228 223 214 209 207 197
200 184 196 196 177 165 126 113 150 161 178 193 184 176 121 186 240 247 228 213 195 198 230 254 272 285 293 298 301 301 304 308 304 302 300 297 293 290 288 286 286 289 281 274 275 263 251 241 230 221 216 207 206 199
192 173 166 176 180 189 152 186 193 199 194 182 144 184 192 199 233 215 205 205 212 231 261 278 285 288 292 298 299 304 308 308 304 300 298 295 297 297 291 289 290 287 272 259 260 261 252 242 233 222 216 207 198 196
172 169 148 134 131 198 222 202 217 205 187 179 176 214 232 222 218 211 219 234 250 267 283 290 291 293 297 299 303 307 308 307 305 301 300 299 304 306 304 291 287 284 270 257 253 252 247 238 230 222 215 206 197 186
168 165 139 166 184 213 208 204 213 204 200 204 226 256 259 261 270 273 275 279 283 287 288 291 294 296 300 304 310 310 309 307 305 299 295 293 295 295 290 287 280 275 261 253 245 236 231 224 213 208 206 198 191 185
159 165 141 168 217 213 218 217 220 226 231 238 241 252 264 280 284 288 286 283 280 280 283 285 288 299 305 311 314 315 316 323 319 313 306 295 284 283 284 282 278 263 250 245 238 221 199 195 200 201 199 194 185 177
154 174 147 166 200 206 193 195 200 216 236 235 247 242 261 263 268 268 269 266 260 268 272 286 304 314 314 315 318 318 319 322 323 320 314 303 293 286 280 274 254 246 234 235 225 207 198 201 198 194 189 182 171 171
119 136 126 128 142 179 183 173 194 264 244 254 247 245 230 241 251 255 263 257 254 258 275 303 317 322 323 324 329 336 336 330 324 323 317 302 293 285 277 249 234 221 216 219 214 206 201 199 194 185 176 172 172 173
Height
1470 1468 1466 1464 1463 1462 1460 1458 1454 1452 1449 1444 1444 1440 1438 1436 1434 1432 1429 1428 1427 1426 1422 1422 1422 1422 1424 1426 1429 1433 1436 1435 1436 1436 1437 1433 1425 1419 1417 1417 1425 1430 1434 1436 1439 1438 1436 1404 1402 1407 1404 1402 1401 1399
1466 1464 1462 1461 1460 1459 1456 1454 1451 1449 1445 1444 1441 1440 1437 1435 1432 1430 1429 1427 1426 1426 1423 1422 1423 1424 1425 1426 1427 1430 1431 1432 1434 1435 1437 1434 1427 1419 1416 1413 1409 1418 1413 1418 1423 1419 1404 1402 1402 1402 1401 1401 1400 1399
1462 1461 1459 1457 1457 1455 1453 1451 1448 1446 1443 1440 1438 1436 1434 1432 1430 1429 1427 1426 1425 1424 1423 1423 1422 1423 1424 1425 1426 1429 1431 1431 1432 1433 1433 1431 1426 1418 1416 1414 1408 1408 1406 1411 1412 1402 1401 1401 1402 1400 1400 1399 1399 1398
1458 1456 1455 1454 1453 1452 1449 1448 1445 1442 1439 1436 1434 1432 1430 1428 1427 1426 1426 1425 1426 1426 1424 1422 1421 1421 1422 1423 1424 1426 1427 1429 1430 1432 1433 1431 1428 1419 1415 1412 1411 1407 1406 1406 1406 1401 1400 1401 1401 1401 1399 1398 1398 1398
1454 1453 1451 1450 1449 1448 1445 1444 1442 1438 1434 1431 1428 1426 1425 1424 1423 1423 1423 1424 1426 1428 1425 1422 1421 1420 1420 1421 1422 1423 1425 1426 1428 1429 1429 1427 1425 1424 1414 1412 1409 1403 1404 1407 1406 1400 1399 1401 1400 1401 1399 1399 1398 1398
1450 1449 1448 1446 1445 1444 1441 1439 1437 1434 1430 1425 1422 1420 1419 1420 1421 1421 1423 1422 1424 1425 1425 1422 1421 1419 1419 1420 1420 1421 1424 1425 1426 1425 1424 1422 1419 1418 1415 1407 1396 1396 1398 1397 1399 1399 1399 1399 1399 1399 1399 1399 1400 1400
1446 1445 1444 1442 1442 1440 1437 1435 1433 1431 1425 1420 1416 1413 1413 1415 1418 1420 1421 1421 1423 1425 1425 1423 1419 1420 1419 1420 1419 1420 1421 1422 1424 1423 1421 1418 1416 1415 1411 1406 1395 1395 1396 1396 1397 1398 1398 1398 1399 1399 1399 1400 1400 1401
1442 1441 1440 1439 1438 1436 1434 1433 1429 1427 1422 1418 1415 1412 1412 1415 1418 1419 1420 1421 1423 1425 1425 1424 1422 1420 1420 1419 1419 1419 1419 1420 1420 1419 1417 1415 1414 1413 1408 1398 1396 1394 1394 1394 1395 1395 1396 1396 1398 1399 1400 1400 1401 1403
1438 1437 1436 1436 1435 1433 1432 1430 1427 1424 1420 1418 1418 1416 1417 1418 1418 1420 1421 1422 1424 1427 1423 1424 1423 1420 1419 1418 1418 1418 1417 1416 1418 1415 1413 1414 1408 1406 1397 1396 1396 1394 1393 1394 1393 1394 1395 1396 1397 1398 1400 1401 1401 1403
1435 1433 1433 1433 1432 1430 1429 1427 1424 1421 1418 1418 1419 1419 1419 1418 1418 1419 1421 1422 1424 1424 1424 1422 1420 1419 1420 1417 1416 1417 1416 1415 1415 1415 1413 1411 1405 1399 1396 1395 1396 1395 1393 1393 1392 1393 1394 1395 1396 1397 1400 1402 1403 1404
1431 1431 1430 1430 1429 1428 1427 1425 1422 1418 1417 1418 1418 1419 1419 1419 1419 1419 1419 1420 1422 1423 1420 1420 1420 1420 1419 1418 1416 1417 1416 1417 1415 1416 1413 1408 1403 1398 1398 1395 1392 1390 1390 1390 1391 1391 1391 1392 1394 1395 1399 1401 1403 1405
1429 1428 1428 1427 1426 1426 1425 1423 1420 1418 1415 1416 1417 1419 1420 1420 1419 1420 1420 1421 1420 1419 1419 1419 1419 1419 1418 1417 1418 1417 1417 1418 1414 1415 1414 1409 1402 1401 1398 1394 1390 1388 1386 1387 1388 1390 1390 1391 1392 1395 1398 1400 1403 1406
1426 1426 1426 1425 1424 1424 1424 1421 1419 1417 1417 1417 1418 1418 1419 1420 1419 1418 1416 1417 1418 1419 1419 1419 1418 1418 1418 1417 1417 1417 1417 1415 1415 1415 1409 1408 1407 1402 1398 1395 1391 1389 1387 1387 1388 1389 1389 1390 1393 1395 1398 1401 1403 1406
1423 1424 1423 1422 1422 1422 1422 1420 1418 1417 1417 1417 1417 1418 1418 1416 1414 1413 1414 1415 1417 1418 1418 1418 1417 1417 1416 1416 1416 1418 1415 1416 1413 1411 1410 1410 1407 1403 1399 1396 1392 1390 1388 1388 1388 1388 1389 1390 1392 1394 1397 1400 1403 1406
1419 1421 1420 1420 1420 1419 1419 1418 1417 1416 1416 1417 1417 1414 1414 1414 1413 1415 1416 1417 1417 1417 1418 1417 1417 1417 1416 1417 1416 1416 1414 1411 1407 1412 1410 1410 1407 1403 1399 1396 1394 1391 1390 1389 1389 1389 1389 1390 1391 1393 1396 1399 1403 1406
1417 1417 1417 1417 1417 1417 1417 1416 1415 1415 1415 1416 1415 1415 1413 1414 1414 1415 1416 1416 1416 1417 1418 1418 1417 1416 1417 1415 1416 1411 1411 1408 1411 1414 1412 1409 1406 1402 1400 1397 1395 1393 1391 1390 1390 1390 1390 1391 1391 1394 1396 1399 1402 1406
1414 1414 1415 1416 1416 1415 1414 1414 1413 1414 1414 1414 1412 1414 1414 1413 1412 1413 1414 1416 1417 1417 1416 1416 1414 1412 1416 1414 1412 1408 1407 1413 1415 1413 1411 1409 1405 1401 1399 1397 1395 1393 1392 1391 1391 1391 1391 1392 1393 1394 1396 1399 1402 1406
1412 1413 1413 1414 1415 1414 1412 1412 1411 1412 1412 1410 1411 1412 1414 1414 1415 1415 1415 1416 1417 1417 1417 1417 1418 1415 1411 1406 1407 1412 1414 1414 1413 1411 1409 1407 1405 1403 1400 1396 1395 1393 1391 1391 1390 1391 1391 1392 1393 1395 1397 1398 1402 1406
1410 1411 1412 1412 1414 1414 1412 1411 1411 1411 1411 1409 1409 1412 1414 1414 1414 1415 1415 1415 1415 1416 1416 1417 1416 1410 1407 1409 1410 1412 1412 1411 1409 1407 1406 1405 1404 1401 1399 1397 1395 1393 1391 1390 1390 1390 1391 1393 1393 1394 1397 1399 1401 1404
1407 1408 1410 1411 1413 1412 1410 1410 1410 1410 1411 1409 1408 1411 1413 1413 1413 1413 1414 1415 1415 1415 1415 1413 1408 1406 1407 1408 1409 1409 1408 1407 1406 1402 1401 1402 1401 1399 1396 1394 1393 1391 1390 1389 1389 1388 1389 1390 1392 1394 1396 1398 1400 1402
1404 1405 1408 1410 1411 1411 1409 1407 1408 1409 1409 1409 1409 1411 1411 1411 1411 1411 1411 1413 1414 1411 1407 1403 1402 1403 1405 1406 1406 1405 1404 1403 1402 1401 1398 1393 1394 1393 1392 1391 1390 1389 1387 1387 1386 1386 1386 1387 1389 1391 1393 1395 1399 1402
1401 1403 1406 1407 1409 1408 1407 1406 1407 1408 1409 1408 1409 1410 1410 1409 1409 1409 1410 1411 1407 1401 1400 1399 1400 1401 1402 1402 1401 1401 1400 1399 1398 1396 1394 1393 1390 1389 1387 1387 1385 1384 1384 1383 1383 1383 1383 1385 1386 1387 1389 1392 1396 1401
1399 1403 1406 1406 1407 1406 1406 1405 1406 1406 1407 1407 1408 1408 1407 1406 1406 1407 1407 1403 1397 1394 1395 1396 1398 1398 1399 1398 1398 1397 1395 1394 1392 1391 1389 1388 1386 1384 1382 1381 1380 1379 1378 1378 1379 1379 1379 1380 1382 1384 1386 1389 1393 1397
1397 1401 1403 1402 1404 1403 1403 1404 1404 1405 1405 1405 1406 1406 1405 1403 1403 1404 1401 1394 1389 1389 1390 1393 1395 1395 1395 1394 1393 1392 1390 1389 1386 1384 1383 1381 1379 1377 1376 1375 1373 1373 1373 1372 1372 1373 1374 1375 1377 1380 1382 1385 1389 1392
1397 1399 1399 1398 1399 1401 1401 1402 1402 1403 1400 1402 1403 1403 1402 1402 1404 1402 1396 1386 1384 1386 1388 1390 1391 1391 1390 1389 1388 1387 1386 1384 1381 1378 1376 1376 1374 1371 1368 1367 1366 1366 1367 1366 1366 1367 1368 1369 1370 1373 1377 1380 1383 1387
1390 1389 1391 1390 1393 1395 1393 1395 1397 1396 1397 1401 1400 1400 1400 1400 1404 1398 1386 1379 1380 1382 1384 1386 1386 1386 1385 1384 1382 1380 1379 1377 1375 1371 1369 1369 1367 1365 1362 1360 1358 1357 1360 1360 1360 1361 1362 1362 1363 1366 1371 1376 1381 1384
1382 1383 1383 1385 1386 1388 1390 1391 1391 1392 1393 1395 1396 1400 1399 1405 1399 1382 1377 1377 1379 1381 1382 1382 1382 1381 1379 1378 1376 1374 1372 1370 1367 1365 1362 1360 1359 1358 1356 1353 1350 1351 1353 1353 1354 1354 1355 1356 1357 1359 1365 1371 1376 1381
1372 1374 1378 1381 1384 1385 1386 1387 1387 1385 1385 1385 1389 1395 1394 1389 1382 1373 1373 1375 1376 1377 1378 1377 1376 1375 1372 1370 1368 1366 1364 1362 1359 1357 1354 1352 1350 1349 1347 1345 1343 1343 1343 1344 1346 1347 1348 1350 1352 1354 1359 1365 1370 1376
1368 1369 1374 1379 1381 1382 1381 1379 1376 1375 1376 1378 1381 1380 1376 1372 1370 1370 1371 1373 1374 1373 1372 1370 1369 1367 1365 1363 1361 1359 1357 1355 1352 1348 1345 1341 1340 1341 1340 1338 1337 1336 1336 1337 1339 1340 1341 1343 1346 1349 1354 1361 1368 1375
1362 1365 1370 1373 1375 1374 1371 1372 1372 1372 1373 1373 1373 1372 1370 1367 1367 1367 1367 1367 1366 1365 1364 1363 1361 1359 1358 1355 1353 1351 1351 1348 1345 1342 1338 1334 1333 1333 1332 1332 1331 1331 1330 1331 1333 1335 1337 1340 1344 1346 1350 1357 1365 1371
1356 1361 1365 1367 1368 1367 1367 1368 1369 1370 1370 1370 1370 1370 1367 1365 1362 1360 1359 1359 1358 1358 1357 1357 1356 1354 1352 1349 1346 1342 1340 1340 1337 1334 1331 1328 1326 1324 1324 1325 1325 1325 1325 1326 1329 1331 1334 1335 1338 1342 1348 1355 1362 1370
1355 1357 1360 1363 1365 1365 1366 1367 1367 1368 1368 1367 1366 1365 1365 1363 1360 1355 1351 1352 1352 1353 1353 1352 1351 1350 1347 1345 1343 1340 1336 1332 1329 1326 1324 1321 1318 1317 1317 1317 1318 1319 1321 1323 1325 1328 1330 1333 1338 1342 1348 1356 1363 1371
1355 1357 1359 1361 1364 1364 1365 1366 1367 1367 1366 1364 1363 1363 1362 1361 1356 1351 1348 1348 1349 1349 1349 1349 1347 1345 1344 1341 1338 1335 1332 1328 1325 1322 1319 1316 1314 1313 1312 1313 1314 1316 1318 1320 1323 1327 1329 1333 1338 1343 1350 1357 1364 1371